• In Hungary
  • List of Countries
  • For 7 days
  • Water Temperature
  • Satellite Maps
  • Weather Map
  • News
  • Weather Widgets
  • user-avatar
    Login

    Hourly Weather Peshawar

    Today, 17 January, Wednesday

    Time Temperature Precipitation Wind Pressure Humidity
    00:00 +22°C° 0 mm 5 mps 754 mmHg 70%
    01:00 +21°C° 0 mm 5 mps 754 mmHg 71%
    02:00 +21°C° 0 mm 5 mps 754 mmHg 73%
    03:00 +21°C° 0 mm 5 mps 753 mmHg 75%
    04:00 +21°C° 0 mm 4 mps 753 mmHg 76%
    05:00 +21°C° 0 mm 4 mps 753 mmHg 76%
    06:00 +21°C° 0 mm 4 mps 754 mmHg 76%
    07:00 +21°C° 0 mm 4 mps 754 mmHg 75%
    08:00 +22°C° 0 mm 4 mps 755 mmHg 65%
    09:00 +25°C° 0 mm 3 mps 755 mmHg 55%
    10:00 +26°C° 0 mm 3 mps 755 mmHg 45%
    11:00 +27°C° 0 mm 3 mps 755 mmHg 39%
    12:00 +28°C° 0 mm 2 mps 754 mmHg 33%
    13:00 +29°C° 0 mm 2 mps 754 mmHg 27%
    14:00 +29°C° 0 mm 2 mps 754 mmHg 27%
    15:00 +29°C° 0 mm 3 mps 754 mmHg 27%
    16:00 +29°C° 0 mm 3 mps 754 mmHg 27%
    17:00 +27°C° 0 mm 3 mps 754 mmHg 32%
    18:00 +26°C° 0 mm 2 mps 754 mmHg 37%
    19:00 +25°C° 0 mm 2 mps 755 mmHg 42%
    20:00 +24°C° 0 mm 2 mps 755 mmHg 41%
    21:00 +23°C° 0 mm 1 mps 755 mmHg 41%
    22:00 +23°C° 0 mm 1 mps 756 mmHg 40%
    23:00 +23°C° 0 mm 1 mps 756 mmHg 38%

    Tomorrow, 18 January, Thursday

    Time Temperature Precipitation Wind Pressure Humidity
    00:00 +21°C° 0 mm 2 mps 756 mmHg 36%
    01:00 +21°C° 0 mm 2 mps 756 mmHg 33%
    02:00 +21°C° 0 mm 2 mps 756 mmHg 29%
    03:00 +20°C° 0 mm 2 mps 756 mmHg 24%
    04:00 +20°C° 0 mm 3 mps 756 mmHg 19%
    05:00 +20°C° 0 mm 3 mps 756 mmHg 17%
    06:00 +20°C° 0 mm 4 mps 757 mmHg 14%
    07:00 +20°C° 0 mm 4 mps 757 mmHg 11%
    08:00 +22°C° 0 mm 5 mps 758 mmHg 12%
    09:00 +24°C° 0 mm 6 mps 758 mmHg 12%
    10:00 +26°C° 0 mm 7 mps 759 mmHg 12%
    11:00 +27°C° 0 mm 7 mps 758 mmHg 12%
    12:00 +28°C° 0 mm 7 mps 757 mmHg 13%
    13:00 +28°C° 0 mm 7 mps 757 mmHg 13%
    14:00 +28°C° 0 mm 6 mps 756 mmHg 14%
    15:00 +28°C° 0 mm 6 mps 756 mmHg 14%
    16:00 +28°C° 0 mm 6 mps 756 mmHg 14%
    17:00 +27°C° 0 mm 6 mps 756 mmHg 14%
    18:00 +26°C° 0 mm 5 mps 757 mmHg 14%
    19:00 +23°C° 0 mm 5 mps 757 mmHg 14%
    20:00 +23°C° 0 mm 5 mps 757 mmHg 14%
    21:00 +23°C° 0 mm 5 mps 758 mmHg 15%
    22:00 +22°C° 0 mm 6 mps 758 mmHg 15%
    23:00 +22°C° 0 mm 6 mps 758 mmHg 15%

    Day after tomorrow, 19 January, Friday

    Time Temperature Precipitation Wind Pressure Humidity
    00:00 +21°C° 0 mm 6 mps 758 mmHg 15%
    01:00 +21°C° 0 mm 6 mps 757 mmHg 15%
    02:00 +21°C° 0 mm 6 mps 757 mmHg 15%
    03:00 +21°C° 0 mm 6 mps 757 mmHg 15%
    04:00 +20°C° 0 mm 6 mps 757 mmHg 15%
    05:00 +20°C° 0 mm 6 mps 758 mmHg 15%
    06:00 +20°C° 0 mm 6 mps 758 mmHg 15%
    07:00 +20°C° 0 mm 6 mps 759 mmHg 15%
    08:00 +22°C° 0 mm 6 mps 759 mmHg 14%
    09:00 +24°C° 0 mm 7 mps 759 mmHg 13%
    10:00 +26°C° 0 mm 7 mps 760 mmHg 12%
    11:00 +27°C° 0 mm 6 mps 759 mmHg 12%
    12:00 +28°C° 0 mm 5 mps 758 mmHg 12%
    13:00 +29°C° 0 mm 5 mps 758 mmHg 12%
    14:00 +29°C° 0 mm 5 mps 757 mmHg 13%
    15:00 +29°C° 0 mm 5 mps 757 mmHg 13%
    16:00 +28°C° 0 mm 4 mps 757 mmHg 13%
    17:00 +27°C° 0 mm 4 mps 757 mmHg 14%
    18:00 +26°C° 0 mm 4 mps 758 mmHg 15%
    19:00 +25°C° 0 mm 4 mps 759 mmHg 16%
    20:00 +23°C° 0 mm 4 mps 759 mmHg 16%
    21:00 +23°C° 0 mm 4 mps 759 mmHg 17%
    22:00 +22°C° 0 mm 4 mps 759 mmHg 17%
    23:00 +22°C° 0 mm 4 mps 759 mmHg 17%

    20 January, Saturday

    Time Temperature Precipitation Wind Pressure Humidity
    00:00 +21°C° 0 mm 4 mps 758 mmHg 17%
    01:00 +21°C° 0 mm 4 mps 758 mmHg 17%
    02:00 +21°C° 0 mm 4 mps 758 mmHg 17%
    03:00 +20°C° 0 mm 4 mps 758 mmHg 17%
    04:00 +20°C° 0 mm 4 mps 758 mmHg 17%
    05:00 +20°C° 0 mm 4 mps 758 mmHg 18%
    06:00 +20°C° 0 mm 4 mps 758 mmHg 18%
    07:00 +20°C° 0 mm 4 mps 759 mmHg 18%
    08:00 +22°C° 0 mm 4 mps 759 mmHg 15%
    09:00 +25°C° 0 mm 4 mps 759 mmHg 13%
    10:00 +27°C° 0 mm 4 mps 759 mmHg 11%
    11:00 +27°C° 0 mm 3 mps 759 mmHg 10%
    12:00 +28°C° 0 mm 3 mps 758 mmHg 10%
    13:00 +29°C° 0 mm 2 mps 757 mmHg 9%
    14:00 +29°C° 0 mm 2 mps 756 mmHg 9%
    15:00 +29°C° 0 mm 3 mps 756 mmHg 9%
    16:00 +29°C° 0 mm 3 mps 756 mmHg 9%
    17:00 +27°C° 0 mm 3 mps 756 mmHg 12%
    18:00 +26°C° 0 mm 3 mps 756 mmHg 15%
    19:00 +24°C° 0 mm 2 mps 757 mmHg 18%
    20:00 +23°C° 0 mm 2 mps 757 mmHg 20%
    21:00 +23°C° 0 mm 2 mps 757 mmHg 22%
    22:00 +21°C° 0 mm 2 mps 757 mmHg 24%
    23:00 +21°C° 0 mm 2 mps 756 mmHg 27%

    21 January, Sunday

    Time Temperature Precipitation Wind Pressure Humidity
    00:00 +20°C° 0 mm 2 mps 756 mmHg 30%
    01:00 +20°C° 0 mm 2 mps 756 mmHg 33%
    02:00 +20°C° 0 mm 2 mps 756 mmHg 36%
    03:00 +19°C° 0 mm 2 mps 755 mmHg 39%
    04:00 +19°C° 0 mm 2 mps 755 mmHg 42%
    05:00 +19°C° 0 mm 2 mps 755 mmHg 44%
    06:00 +19°C° 0 mm 2 mps 756 mmHg 45%
    07:00 +19°C° 0 mm 2 mps 756 mmHg 46%
    08:00 +21°C° 0 mm 2 mps 756 mmHg 39%
    09:00 +24°C° 0 mm 2 mps 756 mmHg 32%
    10:00 +26°C° 0 mm 2 mps 757 mmHg 24%
    11:00 +27°C° 0 mm 3 mps 756 mmHg 22%
    12:00 +28°C° 0 mm 4 mps 755 mmHg 19%
    13:00 +29°C° 0 mm 4 mps 754 mmHg 16%
    14:00 +28°C° 0 mm 4 mps 754 mmHg 19%
    15:00 +28°C° 0 mm 5 mps 754 mmHg 22%
    16:00 +27°C° 0 mm 5 mps 753 mmHg 24%
    17:00 +26°C° 0 mm 5 mps 754 mmHg 32%
    18:00 +25°C° 0 mm 4 mps 754 mmHg 40%
    19:00 +22°C° 0 mm 4 mps 754 mmHg 48%
    20:00 +22°C° 0 mm 3 mps 754 mmHg 53%
    21:00 +22°C° 0 mm 3 mps 754 mmHg 57%
    22:00 +21°C° 0 mm 3 mps 754 mmHg 62%
    23:00 +21°C° 0 mm 3 mps 754 mmHg 65%

    22 January, Monday

    Time Temperature Precipitation Wind Pressure Humidity
    00:00 +21°C° 0 mm 3 mps 754 mmHg 69%
    01:00 +20°C° 0 mm 3 mps 753 mmHg 73%
    02:00 +20°C° 0 mm 3 mps 753 mmHg 75%
    03:00 +20°C° 0 mm 4 mps 753 mmHg 78%
    04:00 +20°C° 0 mm 4 mps 753 mmHg 80%
    05:00 +20°C° 0 mm 4 mps 753 mmHg 79%
    06:00 +20°C° 0 mm 4 mps 753 mmHg 77%
    07:00 +20°C° 0 mm 4 mps 754 mmHg 76%
    08:00 +22°C° 0 mm 4 mps 754 mmHg 65%
    09:00 +23°C° 0 mm 4 mps 754 mmHg 54%
    10:00 +26°C° 0 mm 5 mps 754 mmHg 43%
    11:00 +27°C° 0 mm 6 mps 753 mmHg 39%
    12:00 +27°C° 0 mm 6 mps 752 mmHg 35%
    13:00 +28°C° 0 mm 7 mps 751 mmHg 31%
    14:00 +27°C° 0 mm 7 mps 751 mmHg 36%
    15:00 +26°C° 0 mm 7 mps 751 mmHg 41%
    16:00 +24°C° 0 mm 7 mps 751 mmHg 46%
    17:00 +23°C° 0 mm 6 mps 751 mmHg 51%
    18:00 +23°C° 0 mm 6 mps 752 mmHg 56%
    19:00 +22°C° 0 mm 5 mps 752 mmHg 60%
    20:00 +22°C° 0 mm 6 mps 752 mmHg 58%
    21:00 +22°C° 0 mm 6 mps 752 mmHg 55%
    22:00 +21°C° 0 mm 6 mps 752 mmHg 52%
    23:00 +21°C° 0 mm 6 mps 752 mmHg 49%
    Show more